Flag for Canada Weather past 2 weeks in Saskatoon, Saskatchewan, Canada

Now
-18 °F

Sunny.


Feels Like: -35 °F
Forecast: -28 / -2 °F
Wind: 7 mph from Southwest

Location: Saskatoon Weather Station

Current Time: Mar 4, 2015 at 11:11:18 AM

Latest Report: Mar 4, 2015 at 10:00 AM


Visibility: 15 mi

Pressure: 30.51 "Hg

Humidity: 69%

Dew point: -26 °F

Location of SaskatoonLocation

Historic Weather in Saskatoon — Graph

°F

Saskatoon temperature yesterday

Maximum temperature yesterday: 1 °F (at 2:00 PM)
Minimum temperature yesterday: -11 °F (at 6:00 AM)
Average temperature yesterday: -6 °F

Past Weeks' High & Low Weather Summary

 TemperatureHumidityPressure
High34 °F (Feb 23, 3:00 PM)100% (Feb 19, 7:00 PM)30.88 "Hg (Feb 19, 7:00 PM)
Low-29 °F (Feb 22, 2:00 AM)58% (Feb 21, 6:00 PM)29.84 "Hg (Mar 2, 9:00 AM)
Average2 °F76%30.32 "Hg
* Reported Feb 17 10:00 AM — Mar 4 10:00 AM, Saskatoon, Weather by CustomWeather, © 2015

Note: Actual official high and low records may vary slightly from our data, if they occured in-between our weather recording intervals... More about our weather records

Advertising

Saskatoon weather history for previous 24 hours

 ConditionsComfort  
Time TempWeatherWind HumidityBarometerVisibility
10:00 AM
Wed, Mar 4
-18 °FSunny.7 mph69%30.51 "Hg15 mi
9:00 AM-24 °FSunny.8 mph68%30.51 "Hg15 mi
8:00 AM-26 °FSunny.8 mph75%30.51 "Hg15 mi
7:00 AM-27 °FClear.7 mph74%30.50 "Hg15 mi
6:00 AM-26 °FClear.7 mph67%30.50 "Hg15 mi
5:00 AM-26 °FClear.8 mph75%30.48 "Hg15 mi
4:00 AM-24 °FClear.10 mph68%30.47 "Hg15 mi
3:00 AM-22 °FClear.10 mph75%30.47 "Hg15 mi
2:00 AM-20 °FClear.10 mph68%30.45 "Hg15 mi
1:00 AM-22 °FClear.8 mph75%30.43 "Hg15 mi
12:00 AM-18 °FClear.9 mph69%30.41 "Hg15 mi
11:00 PM
Tue, Mar 3
-11 °FClear.14 mph58%30.38 "Hg15 mi
10:00 PM-11 °FClear.12 mph63%30.36 "Hg15 mi
9:00 PM-9 °FClear.12 mph70%30.32 "Hg15 mi
8:00 PM-11 °FClear.9 mph63%30.29 "Hg15 mi
7:00 PM-8 °FPassing clouds.8 mph64%30.26 "Hg15 mi
6:00 PM-4 °FScattered clouds.10 mph59%30.23 "Hg15 mi
5:00 PM0 °FBroken clouds.16 mph60%30.20 "Hg6 mi
4:00 PM1 °FPartly sunny.22 mph60%30.17 "Hg6 mi
3:00 PM1 °FPartly sunny.22 mph60%30.16 "Hg6 mi
2:00 PM1 °FOvercast.20 mph65%30.17 "Hg6 mi
1:00 PM0 °FOvercast.13 mph65%30.19 "Hg15 mi
12:00 PM-2 °FPartly sunny.13 mph65%30.23 "Hg15 mi
11:00 AM-4 °FPartly sunny.10 mph65%30.24 "Hg15 mi
Weather by CustomWeather, © 2015

See weather overviewHow to use our weather pages